This is the latest recevied weather packets stored in our database for station/object N7ZAP. If no packets are shown the sender has not sent any weather packets the latest 10 day(s).
| Time | Temp. | Humidity | Pressure | Rain* | Wind** | Luminosity | Snow |
|---|---|---|---|---|---|---|---|
| 1777732866 | 11.11° C | 62% | 1024.6 hPa | 0 mm | - | - | - |
| 1777732563 | 11.11° C | 62% | 1024.8 hPa | 0 mm | - | - | - |
| 1777732261 | 10.56° C | 63% | 1024.7 hPa | 0 mm | - | - | - |
| 1777731958 | 10.56° C | 64% | 1024.7 hPa | 0 mm | - | - | - |
| 1777731654 | 10.56° C | 65% | 1024.8 hPa | 0 mm | - | - | - |
| 1777731352 | 10.56° C | 66% | 1024.6 hPa | 0 mm | - | - | - |
| 1777731049 | 10° C | 67% | 1024.8 hPa | 0 mm | - | - | - |
| 1777730748 | 10° C | 67% | 1024.5 hPa | 0 mm | - | - | - |
| 1777730444 | 10° C | 68% | 1024.6 hPa | 0 mm | - | - | - |
| 1777730139 | 9.44° C | 68% | 1024.8 hPa | 0 mm | - | - | - |
| 1777729837 | 9.44° C | 68% | 1024.6 hPa | 0 mm | - | - | - |
| 1777729533 | 9.44° C | 69% | 1024.2 hPa | 0 mm | - | - | - |
| 1777729230 | 9.44° C | 70% | 1024.5 hPa | 0 mm | - | - | - |
| 1777728927 | 8.89° C | 68% | 1024.5 hPa | 0 mm | - | - | - |
| 1777728624 | 8.89° C | 68% | 1024.5 hPa | 0 mm | - | - | - |
| 1777728321 | 8.89° C | 69% | 1024.5 hPa | 0 mm | - | - | - |
| 1777728018 | 8.89° C | 67% | 1024.1 hPa | 0 mm | - | - | - |
| 1777727715 | 8.89° C | 67% | 1023.9 hPa | 0 mm | - | - | - |
| 1777727411 | 8.33° C | 68% | 1024.1 hPa | 0 mm | - | - | - |
| 1777727109 | 8.33° C | 74% | 1024 hPa | 0 mm | - | - | - |
| 1777726807 | 8.33° C | 73% | 1024 hPa | 0 mm | - | - | - |
| 1777726503 | 8.33° C | 75% | 1023.8 hPa | 0 mm | - | - | - |
| 1777726200 | 8.33° C | 77% | 1023.8 hPa | 0 mm | - | - | - |
| 1777725897 | 8.33° C | 78% | 1023.8 hPa | 0 mm | - | - | - |
| 1777725594 | 8.33° C | 77% | 1023.9 hPa | 0 mm | - | - | - |
* Rain latest hour (hover to see other rain measurements)
** Current wind speed in m/s (hover to see current wind gust speed)